Regional Weather Roundup
Issued by NWS Jackson, KY

Home | Current Version | Previous Version | Text Only | Print | Product List | Glossary Off
Versions: 1 2 3 4 5 6 7 8 9 10 11 12 13 14 15 16 17 18 19 20 21 22 23 24 25 26 27 28 29 30 31 32 33 34 35 36 37 38 39 40 41 42 43 44 45 46 47 48 49 50

260
ASUS43 KJKL 132310
RWRJKL

EAST KENTUCKY HOURLY WEATHER ROUNDUP
NATIONAL WEATHER SERVICE JACKSON KY
600 PM EST SAT FEB 13 2016

NOTE: "FAIR" INDICATES FEW OR NO CLOUDS BELOW 12,000 FEET WITH
NO SIGNIFICANT WEATHER AND/OR OBSTRUCTIONS TO VISIBILITY.

* THESE REPORTS ARE NOT UNDER NWS QUALITY CONTROL AND MAY NOT
  REPORT WEATHER SUCH AS PRECIPITATION AND FOG.

KYZ079-080-083-085-087-088-110-112-115-119-120-140000
...EASTERN KENTUCKY...

CITY           SKY/WX    TMP DP  RH WIND       PRES   REMARKS
JACKSON        CLEAR     19   0  43 VRB5      30.44R WCI  12
LONDON         CLEAR     22   1  40 N8        30.45R WCI  12
SOMERSET*      CLEAR     23   3  42 N3        30.50R
MONTICELLO*    CLEAR     24   9  52 N13       30.49R WCI  12
WILLIAMSBURG*  CLEAR     23   1  39 NW7       30.46R WCI  15
MIDDLESBORO*   CLEAR     24   4  42 N6        30.44R WCI  17
HARLAN APT*      N/A     23   0  36 W6        30.40R WCI  16
BLACK MTN*       N/A      7   0  72 CALM        N/A
BIG SANDY*     CLEAR     19   0  42 N3        30.44S
MOREHEAD APT*  CLEAR     19   0  42 N5        30.50R WCI  13
$$

KYZ035-036-041-042-044-050-067-078-099-140000
...CENTRAL KENTUCKY...

CITY           SKY/WX    TMP DP  RH WIND       PRES   REMARKS
MT STERLING*   CLEAR     21   3  45 N6        30.50R WCI  14
DANVILLE*      CLEAR     21   5  49 N5        30.50R WCI  15
RICHMOND*      CLEAR     21   1  42 NW6       30.48R WCI  14
LEXINGTON      CLEAR     20   0  41 N8        30.48S WCI  10
FRANKFORT      CLEAR     21  -1  38 NW7       30.50R WCI  12
$$

KYZ091>093-OHZ055-061-077-WVZ005-015-034-035-042-140000
...SOUTHERN OHIO/WEST VIRGINIA...

CITY           SKY/WX    TMP DP  RH WIND       PRES   REMARKS
COVINGTON      PTCLDY    17   1  49 NW7       30.51R WCI   8
COLUMBUS       MOCLDY    14  -1  51 W15       30.48R WCI  -1
DAYTON         PTCLDY    13   0  56 NW9       30.49R WCI   1
WILMINGTON     CLEAR     13  -2  51 NW9       30.48R WCI   1
HUNTINGTON       N/A     19  -3  38 NW9       30.48R WCI   8
CHARLESTON       N/A     16  -5  39 NW12      30.46R WCI   3
PINEVILLE*       N/A     15  -2  46 MISG      30.42S
BECKLEY          N/A     11  -6  46 NW12      30.29R WCI  -3
$$

VAZ002-007-008-TNZ017-027-036-066-071-140000
...SOUTHWEST VIRGINIA/EAST TENNESSEE...

CITY           SKY/WX    TMP DP  RH WIND       PRES   REMARKS
BRISTOL        CLEAR     24   1  36 NW9       30.37R WCI  14
KNOXVILLE      CLEAR     30   5  34 N7        30.42  WCI  23
OAK RIDGE      CLEAR     31   2  29 VRB7      30.44R WCI  24
CROSSVILLE     CLEAR     26   4  38 N9        30.37F WCI  17
NASHVILLE      CLOUDY    29   0  28 N8        30.50R WCI  21
$$

...KEY TO REMARKS...
VSB - VISIBILITY IN MILES
WCI - WIND CHILL INDEX
HX  - HEAT INDEX

$$




USA.gov is the U.S. government's official web portal to all federal, state and local government web resources and services.